Location: Unspecified
(0.0000°N, 0.0000°E)
Time: 01:20:14
(UTC+00:00)

Envisat - Pass Details

Date: 27 October 2020
Orbit: 764 x 766 km, 98.1° (Epoch: 25 October)

Event Time Altitude Azimuth Distance (km) Brightness Sun altitude
Rises 18:02:32 0° 182° (S) 3,230 6.5 -4.6°
Reaches altitude 10° 18:04:58 10° 190° (S) 2,301 5.8 -5.1°
Maximum altitude 18:09:40 39° 258° (WSW) 1,132 4.7 -6.3°
Drops below altitude 10° 18:14:22 10° 326° (NW) 2,291 5.8 -7.4°
Sets 18:16:47 0° 334° (NNW) 3,214 6.4 -8.0°
